Total_Precipitation_Accumulation
0.49 0.51 0.94 1.03 1.03 0.86 0.64 0.68 0.72 0.99 1.48 2.38 4.25 2.06 1.82 1.80 1.60 2.29 2.10 2.12 2.07 1.52 1.37 1.26 1.42 1.75 1.50 1.53 1.69 1.85 1.89 1.99 1.92 1.60 1.80 2.25 2.15 2.04 1.25 1.33 0.94 0.60 0.63
1.15 0.53 1.03 1.39 1.49 0.76 0.44 0.30 0.26 0.50 0.90 1.15 1.60 1.55 1.67 1.41 1.58 2.42 2.33 2.08 2.49 2.12 1.86 1.86 1.74 1.75 1.87 1.70 1.35 1.60 1.92 1.99 2.44 2.22 1.90 2.58 2.80 2.29 1.68 1.67 0.91 0.52 0.55
1.40 1.41 1.70 1.50 1.19 1.45 0.78 0.24 0.25 0.40 0.47 0.62 1.01 1.45 1.42 1.20 1.66 1.94 2.61 2.65 2.40 2.57 2.04 1.98 2.04 2.23 2.20 1.99 1.80 1.64 1.32 2.02 2.52 3.07 1.81 2.00 1.88 1.83 2.33 2.29 1.48 0.76 0.58
2.09 2.00 1.74 1.37 1.06 1.28 1.12 0.56 0.26 0.35 0.35 0.33 0.54 0.88 1.00 1.08 1.06 1.33 1.70 1.72 1.89 1.92 2.57 2.50 2.00 2.27 2.80 3.00 2.32 2.51 3.20 3.07 3.24 3.07 2.38 1.93 2.03 2.46 2.62 2.83 2.70 2.28 1.53
3.03 3.22 2.97 1.89 1.35 1.32 1.88 1.89 1.06 0.85 0.75 0.52 0.55 0.78 1.08 1.08 0.89 1.30 1.41 1.40 1.49 1.44 1.83 2.24 2.24 2.86 3.09 2.83 2.19 2.44 3.05 3.31 2.59 2.13 1.71 1.84 1.88 2.07 2.64 2.65 2.56 2.53 1.90
3.00 2.77 2.48 2.32 2.65 2.49 2.43 3.05 2.50 1.98 1.98 1.61 1.04 1.10 1.18 0.68 1.11 1.39 1.09 1.31 1.38 1.35 1.41 1.50 1.81 2.46 2.23 1.91 1.58 1.70 1.89 2.03 2.03 2.12 1.70 1.98 2.47 2.12 1.66 1.68 1.94 2.32 1.75
2.86 3.11 3.04 2.78 2.89 2.45 2.45 2.97 2.97 3.35 3.39 2.54 2.09 2.18 1.97 1.62 1.40 1.51 1.60 1.13 1.27 1.25 1.24 1.25 1.24 0.87 1.28 1.18 1.58 1.52 1.25 1.21 1.17 1.57 1.42 1.59 2.23 2.72 2.27 1.76 1.94 2.07 1.70
2.77 3.04 2.58 3.16 3.52 3.41 2.80 2.60 3.20 3.58 3.32 3.04 2.64 2.53 2.57 2.18 2.10 1.99 2.41 1.47 0.93 0.99 1.16 1.06 1.08 0.95 1.01 1.66 1.38 1.13 0.95 0.94 1.00 0.81 0.82 1.03 1.45 1.67 2.28 2.64 2.53 1.84 1.65
2.45 2.44 2.53 2.78 3.59 3.98 3.77 3.41 3.40 3.77 3.51 3.17 3.18 3.25 2.89 2.14 3.07 2.98 3.14 2.10 1.52 1.55 1.53 1.19 1.04 0.87 1.27 1.62 1.36 0.81 0.88 0.60 0.77 0.74 0.69 0.78 1.14 1.38 1.84 2.13 2.23 2.43 1.60
2.66 2.82 2.49 2.41 2.24 2.40 2.98 3.40 3.41 3.59 3.64 3.44 2.90 2.67 2.77 2.30 3.28 3.18 3.03 2.24 1.49 1.49 1.60 1.38 1.36 0.91 1.55 1.64 1.13 1.11 0.95 0.92 1.25 0.98 0.78 0.40 0.39 0.55 1.06 1.30 2.01 2.49 2.69
3.70 3.28 2.71 3.11 3.25 3.28 2.80 3.27 3.82 4.27 4.04 3.69 3.24 3.85 3.81 3.55 3.42 3.51 3.43 3.03 2.51 2.36 1.74 1.68 1.76 2.32 1.84 1.80 1.63 1.09 1.02 1.28 1.40 1.06 0.90 0.76 0.85 0.60 0.64 0.68 0.88 1.48 1.57
3.32 4.10 4.69 4.12 4.24 4.28 4.70 5.06 5.31 5.25 5.05 4.80 5.08 4.86 4.44 4.20 4.30 4.04 3.94 3.40 3.33 2.31 1.83 2.05 2.28 2.69 2.84 2.41 1.86 1.62 1.64 1.44 0.98 0.81 0.79 0.62 0.69 0.73 0.82 1.03 1.28 1.46 1.71
3.15 2.96 2.30 2.65 3.29 4.23 4.88 4.86 5.70 6.16 5.35 4.59 4.02 3.75 3.90 3.68 3.31 3.49 3.30 2.76 2.54 2.00 1.88 2.10 2.07 2.18 2.22 1.70 1.48 1.60 1.75 1.44 1.23 1.16 1.10 1.03 1.02 1.08 1.18 1.33 1.47 1.83 2.07
2.99 3.49 3.87 3.46 3.77 4.69 5.13 5.99 5.85 5.34 4.56 4.18 4.17 4.00 3.87 3.51 2.86 2.92 3.30 2.86 2.38 1.90 1.67 1.35 1.22 1.08 0.93 0.83 1.08 1.25 1.23 1.43 1.49 1.45 1.63 1.50 1.45 1.50 1.51 1.78 2.09 2.54 2.74
2.72 2.94 2.83 3.08 3.11 3.01 3.67 4.34 4.79 4.47 4.19 4.03 4.01 3.83 3.54 3.10 2.83 2.99 3.20 3.04 2.77 2.92 2.90 2.26 2.10 1.83 1.74 1.54 1.50 1.56 1.61 1.77 1.82 2.12 2.55 2.70 2.70 2.69 2.47 2.60 3.20 3.70 3.79
3.16 3.17 2.97 2.41 2.10 2.19 2.38 2.84 3.04 3.15 3.76 3.58 3.81 3.18 3.40 4.22 5.01 4.85 5.13 5.38 5.07 4.66 3.68 2.77 2.32 1.86 1.75 1.83 2.02 2.00 1.94 2.01 2.00 2.52 2.75 2.72 2.63 2.42 2.22 2.24 2.23 2.22 2.25
2.41 2.56 2.29 1.86 2.02 1.89 1.84 1.85 1.70 1.97 2.10 2.06 2.82 3.33 2.90 2.42 2.96 3.18 3.24 3.05 2.98 2.61 1.76 1.67 1.53 1.33 1.36 1.48 1.62 1.67 1.73 1.73 2.01 2.26 2.29 2.05 1.95 1.77 1.86 1.64 1.66 1.78 1.75
2.51 2.89 2.35 1.97 1.72 1.54 1.41 1.61 1.82 1.88 1.78 1.38 1.36 1.63 1.51 1.58 1.94 2.03 2.75 2.39 2.02 2.05 1.46 1.14 0.91 1.04 0.90 0.86 1.00 1.10 1.15 1.37 1.65 1.79 1.78 1.64 1.78 1.82 1.66 1.66 1.85 1.91 1.86
3.61 3.15 3.08 2.95 2.93 2.85 2.71 2.72 2.13 1.60 1.42 1.16 1.11 1.13 1.09 1.19 1.57 1.65 1.72 1.58 1.19 0.99 1.19 1.16 1.02 1.11 1.20 1.11 1.14 1.13 1.17 1.55 1.87 2.19 2.42 2.38 2.52 2.97 3.12 3.28 3.64 4.27 4.25
2.96 3.92 3.87 3.40 3.44 3.40 3.50 3.52 3.25 2.87 2.56 2.18 2.02 1.82 1.76 2.01 1.68 1.65 1.61 1.58 1.33 1.41 1.51 1.39 1.35 1.41 1.46 1.56 1.86 2.02 1.99 2.22 2.33 2.61 2.77 2.82 3.22 3.83 4.10 4.33 3.95 3.44 2.96
2.16 2.19 2.66 2.48 2.69 2.83 3.02 3.05 2.89 2.70 2.68 2.70 3.02 3.47 3.34 3.09 2.66 2.57 2.69 2.66 2.31 2.18 2.58 2.90 3.48 3.98 4.00 4.02 4.00 4.05 3.93 3.99 4.14 4.31 4.76 4.76 4.54 4.39 4.26 3.69 3.14 3.01 2.83
1.83 2.10 2.08 2.39 1.87 1.48 1.42 1.63 1.77 1.56 1.75 2.06 2.20 2.52 2.83 2.50 2.15 2.25 2.18 2.09 2.09 2.15 2.38 2.37 2.52 2.70 2.80 3.01 2.96 2.52 2.15 2.36 2.51 2.74 2.87 2.97 2.98 3.02 3.22 3.02 2.56 2.27 2.11
2.01 2.05 1.86 2.07 2.37 2.24 2.22 2.12 1.97 1.65 1.42 1.26 1.33 1.02 0.79 0.80 0.82 0.93 0.98 0.99 1.00 1.05 1.20 1.13 1.04 0.92 0.76 0.70 0.70 0.64 0.56 0.55 0.60 0.81 1.01 1.15 1.35 1.49 1.57 1.37 1.17 1.05 1.02
1.83 2.22 2.48 2.33 2.05 1.80 1.44 1.89 2.78 3.00 2.72 2.33 2.16 1.87 1.54 1.22 1.08 1.11 1.25 1.13 1.07 1.07 0.98 1.05 1.00 0.94 0.88 1.00 0.95 0.81 0.68 0.73 0.70 0.59 0.63 0.73 0.73 0.82 0.71 0.72 0.72 0.73 0.73
2.20 1.99 2.49 2.46 2.54 2.18 2.13 1.95 2.05 1.99 1.99 2.27 2.54 2.17 1.93 1.68 1.38 1.32 1.11 1.08 1.11 1.23 1.17 1.22 1.18 1.08 0.88 0.79 0.79 0.77 0.84 0.90 0.65 0.66 0.61 0.58 0.55 0.55 0.52 0.49 0.52 0.56 0.53
1.79 1.66 1.32 1.53 1.51 1.63 1.85 2.40 3.16 3.60 2.96 3.32 2.56 2.63 2.46 1.88 1.66 1.48 1.41 1.38 1.26 1.18 1.22 1.17 1.15 1.12 1.07 0.91 0.79 0.84 0.83 0.68 0.68 0.75 0.65 0.54 0.52 0.52 0.51 0.47 0.49 0.58 0.61